sat.trackr.live / text

‹ back to catalog

STARLINK-32222

NORAD 60435 · 2024-144L

PAYLOAD ACTIVE UNKNOWN

§ Identity

Operator
Country
US
Launch date
2024-08-12
Launch site
AFETR
Launch vehicle
Mass (kg)
RCS (m²)

Purposes: comms

External: N2YO · Heavens-Above · Gunter

§ Orbital elements

Epoch: 2026-09-21T15:27:35.203680Z

Period
93.85 min
Inclination
53.1623°
Eccentricity
0.0001533
Mean motion
15.34386018 rev/d
Perigee alt
461.7 km
Apogee alt
463.8 km
Semi-major
6,840.9 km
B*
1.6766e-5
RAAN
22.4842°
Arg perigee
75.7310°
Mean anomaly
284.3863°
Rev number
11,937

§ Raw data

STARLINK-322221 60435U 24144L   26264.64415745  .00000190  00000+0  16766-4 0  99982 60435  53.1623  22.4842 0001533  75.7310 284.3863 15.34386018119371

JSON: /api/v1/satellites/60435 · /tle

For live sub-satellite position, see the globe view (requires WebGL).

§ Visibility from observer

Set your observer location to see the next 7 days of passes ≥ 10°. The values pass through the URL so the page stays shareable.

No JS? Fill the form by hand. The geolocation button needs JavaScript.